User: anonymous   Login
Location: UBC Liquid-Mirror Observatory
(49.2876°N, 122.5728°W)
Time: 16:30:52
(UTC-08:00)
Language:

Cosmos 1743 Rocket - Orbit

View from above orbital plane
View from above orbital plane
View from above satellite
View from above satellite

Ground track
Ground track

The orbit data is extracted from the following two-line orbital elements,

1 16720U 86034B   15057.24805764  .00000355  00000-0  40624-4 0  9994
2 16720 082.5550 306.3129 0020073 003.1975 136.1135 14.82989725554463
Epoch (UTC): 26 February 2015 05:57:12
Eccentricity: 0.0020073
inclination: 82.5550°
perigee height: 606 km
apogee height: 634 km
right ascension of ascending node: 306.3129°
argument of perigee: 3.1975°
revolutions per day: 14.82989725
mean anomaly at epoch: 136.1135°
orbit number at epoch: 55446

The dashed part of the orbit path shows where the satellite is in the earth's shadow,  

DLR